Tracking 29093 objects as of 15-Jul-2024
HD Live streaming from Space Station
objects crossing your sky now

STARLINK-3881

Track STARLINK-3881 now!
10-day predictions
STARLINK-3881 is classified as:


NORAD ID: 52472
Int'l Code: 2022-049X
Perigee: 545.9 km
Apogee: 547.8 km
Inclination: 53.2 °
Period: 95.4 minutes
Semi major axis: 6917 km
RCS: Unknown
Launch date: May 6, 2022
Source: United States (US)
Launch site: AIR FORCE EASTERN TEST RANGE (AFETR)
Your satellite tracking list
Your tracking list is empty




NASA's NSSDC Master Catalog

Two Line Element Set (TLE):
1 52472U 22049X   24196.85459400  .00006437  00000-0  42206-3 0  9991
2 52472  53.2141 245.3559 0001338  91.2461 268.8685 15.08848753121409
Source of the keplerian elements: AFSPC